Погода в Орлинге

Погода в Орлинге : погода сейчас, прогноз погоды и архив. Всё, что Вы хотите узнать о погоде в Орлинге!

Хотите узнать прогноз погоды в Орлинге? Тогда Вам сюда: Погода в Орлинге

Поиск расширенной информации на нашем сайте:

Другие новости

Новости СМИ2

Главная страница сайта

Новости сайта

03.07.2017

Напоминаем, что на нашем специализированном сайте Метеоцентр.Азия вы можете получить высокодетализированные автоматические прогнозы погоды по пунктам России, СНГ и мира в авиационном формате (включающие направление и скорость ветра, видимость, явления погоды, количество и форму облачности, нижнюю и верхнюю границу облачности).


Погода в Орлинге - сегодня

Время (UTC), дата Ветер
(°,м/с) 
Видим.   Явления Облачность Т
(°С)
Тd
(°С)
f(%) Тe
(°С)
Pmin
(гПа)
dP
(гПа)
Po
(мм)
O2
(г/м3)
Тmin Tmax R s Состояние
почвы
00 17.05.18 320 (СЗ) 4000 м    9/9 1000 м 
[St]
+5.1 +3.4 89 +6  1013.9  1.6  730  288  +4       
06 17.05.18 160 (Ю) 20000 м    8/4 1000 м верхняя 
[Cu med, cong|Ci fib]
+16.2 -1.3 30 +16  1007.1  -5.1  726  276           
12 17.05.18 180 (Ю) 2{12}  20000 м    10/3 1000 м верхняя 
[Sc diur, vesp|Ci fib]
+17.5 -1.5 27 +18  1002.7  -4.1  723  274    +18.3       
18 17.05.18 290 (З) н/о    4/0 верхняя 
[Ci fib]
+4.9 -1 66 +5  1005.2  0.8  723  286           
00 18.05.18 290 (З) 20000 м    10/4 1000 м средняя, верхняя 
[Sc|Ac trans|Ci fib]
+7.5 +0.4 61 +7  1007.5  2.5  725  284  +0         
06 18.05.18 320 (СЗ) 20000 м  {ливн. осадки}  9/9 600 м кучево-дожд. 
[Cb cap]
+8.9 -2.6 44 +8  1010.7  3.2  728  284           
12 18.05.18 320 (СЗ) 20000 м    6/3 1000 м верхняя 
[Cu med, cong|Ci fib]
+11.3 -4.9 32 +12  1010.3  0.1  728  282    +12.1  0.0     
18 18.05.18 тихо ()   н/о    10/0 средняя, верхняя 
[Ac lent|Ci]
-2 -4.8 81 -2  1015.3  2.7  730  297           
00 19.05.18 тихо ()   20000 м    4/0 средняя 
[Ac cast]
+2.3 -3.3 66 +2  1017  2.4  732  293  -2.4         
06 19.05.18 320 (СЗ) 3{10}  20000 м    1/1 1000 м 
[Cu hum]
+12 -7.2 25 +12  1013.9  -1.7  730  283           
12 19.05.18 320 (СЗ) 20000 м    6/0 верхняя 
[Ci fib]
+11.1 -3.9 35 +12  1011.1  -2.7  728  282    +14.9       
18 19.05.18 тихо ()   н/о    3/0 верхняя 
[Ci fib]
-0.5 -4.6 74 -1  1011.2  -1.6  727  294           
00 20.05.18 290 (З) 20000 м    10/0 средняя 
[Ac As]
+1.2 -3 74 +2  1011  0.1  727  292  -2.7        сухая 
12 20.05.18 тихо () {11}  10 км  {ливн. осадки}  10/8 600 м кучево-дожд., средняя 
[Cb cap|As op]
+2.5 +0.1 84 +3  1019.9  5.3  734  293    +6.3     
18 20.05.18 тихо ()   н/о  туман  ?/?  
-0.5 -0.5 100 -1  1020.5  0.1  734  296           
00 21.05.18 320 (СЗ) 20000 м  {туман}  9/3 600 м кучево-дожд., верхняя 
[Cb calv|Cs]
+1.4 -1.4 82 +2  1019.6  -0.6  718  288  -0.8        влажная 
06 21.05.18 340 (С) 3{11}  20000 м    10/10 600 м кучево-дожд. 
[Cb cap]
+5.9 -5.4 44 +5  1015.7  -3.1  731  289           
12 21.05.18 320 (СЗ) 20000 м  {ливн. осадки}  10/3 600 м кучево-дожд., средняя 
[Cb cap|Ac As]
+6.3 -6.5 39 +7  1012.7  -2.7  729  288    +6.4  0.0     
00 22.05.18 тихо ()   10 км  {ливн. осадки}  10/10 300 м кучево-дожд. 
[Cb cap]
+2.3 +1.8 96 +2  1005.8  -3.2  724  289  +0.9      влажная 
12 22.05.18 320 (СЗ) 6-11{11}  20000 м    9/0 средняя, верхняя 
[Ac As|Ci fib]
+12.1 -1.1 40 +11  994.7  -2.5  717  277    +15.6       
00 23.05.18 тихо ()   10 км  в посл. час ливневой дождь  10/10 300 м кучево-дожд. 
[Cb cap]
+5.5 +4.8 95 +6  993.8  -1  715  282  +5.3      влажная 
12 23.05.18 320 (СЗ) 20000 м  в посл. час ливневой дождь  9/8 600 м кучево-дожд., средняя, верхняя 
[Cb cap|Ac trans|Ci fib]
+12.3 +4.4 58 +14  993.7  2.3  716  275    +12.3     
00 24.05.18 тихо ()   10 км    9/9 600 м 
[Frnb]
+7.7 +4.5 80 +8  999.7  3.1  720  281  +5.7    0.0    влажная 
12 24.05.18 360 (С) 20000 м    10/6 600 м кучево-дожд., средняя 
[Cb cap|As op]
+13.8 +4.8 55 +15  1006  725  277    +15.1  0.0     
00 25.05.18 120 (ЮВ) 10 км  слаб. ливневой дождь  10/10 300 м кучево-дожд. 
[Cb cap]
+5.3 +3.9 91 +6  1013.9  2.8  730  288  +5.2    18    влажная 
Время (UTC), дата Ветер
(°,м/с) 
Видим.   Явления Облачность Т
(°С)
Тd
(°С)
f(%) Тe
(°С)
Pmin
(гПа)
dP
(гПа)
Po
(мм)
O2
(г/м3)
Тmin Tmax R s Состояние
почвы

Для получения пояснительной информации подведите курсор к названию столбца.

ПОГОДА в Орлинге - архив

Всё, что Вы хотите узнать о погоде в Орлинге - удобно и подробно!

Выберите нужную дату (начиная с 1 января 2015* года) и нажмите кнопку "Найти".
Будут отображены архивные сводки погоды по пункту Орлинга, начиная с указанной даты.


Отображать данные в формате CSV (для использования в таблицах Excel)


Внимание! Наш архив погоды предназначен исключительно для личного некоммерческого использования в познавательных целях. Если Вам необходимы официальные справки о состоянии погоды (для производственных, юридических, коммерческих и т.п. целей), обращайтесь в органы Росгидромета.

*Примечание: данная дата относится к архиву по метеостанциям СССР (Россия, СНГ, Балтия).
Архив по метеостанциям Зарубежной Европы и Азии (кроме Китая) хранится 10 дней, по другим регионам земного шара (Китай, Африка, Америка, Австралия, Океания) - 1 день.

Орлинга - район местоположения метеостанции


Название, широта, долгота, высота метеостанции:
Орлинга 56.1°ш. 105.8°д. 338 м над ур. моря [Российская Федерация]

Дополнительная информация

В oтличие oт бoльшинства пoгoдных сайтoв мы публикуем пoдрoбную метеoинфoрмацию в детальнoм прoфессиoнальнoм фoрмате.

Характеристики температуры и влажнoсти вoздуха измеряются на высoте 2 м в тени вдали oт зданий и деревьев.
Скoрoсть ветра измеряется на высoте 10 м (на урoвне рoста челoвека скoрoсть ветра ниже в 1.5-2 раза). Если метеoстанция нахoдится в гoрoде или в лесу, тo скoрoсть ветра занижена на 2-4 м/с пo сравнению с oткрытым местoм. Скoрoсть ветра над акватoриями крупных рек и oзёр, а также на вершинах хoлмoв на 2-5 м/с выше, чем в oбычных услoвиях.
Атмoсфернoе давление в разных тoчках местнoсти мoжет значительнo oтличаться oт давления на метеoстанции, в зависимoсти oт услoвий рельефа (при пoдъёме на 10 м давление пoнижается примернo на 1 мм рт.ст.).